Retour au catalogue

DELTA 1 DEB

ActifPO
NORAD 26036·DEBRIS·🇺🇸 United States

Lancé Jun 12, 1975 depuis Vandenberg Space Force Base

Loading…

Prochains Passages (prochaines 24 heures)

TLE

FraisSource: Space-Track

Époque: Sep 14, 2026, 09:52 UTC

1 26036U 75052KA  26257.41161092  .00009639  00000-0  10233-2 0  9990
2 26036  99.9313 149.7378 0050660 137.3790 223.1369 14.88393322447755

Suivez DELTA 1 DEB en temps réel avec AllMySat

Download on the App Store